sat.trackr.live / text

‹ back to catalog

UNKNOWN

NORAD 87211

UNKNOWN UNKNOWN UNKNOWN

§ Identity

Operator
Country
Launch date
Launch site
Launch vehicle
Mass (kg)
RCS (m²)

External: N2YO · Heavens-Above

§ Orbital elements

Epoch: 2026-05-23T19:51:33.733728Z

Period
99.47 min
Inclination
99.0821°
Eccentricity
0.0053175
Mean motion
14.47670371 rev/d
Perigee alt
695.5 km
Apogee alt
771.1 km
Semi-major
7,111.4 km
B*
5.8795e-4
RAAN
160.4493°
Arg perigee
38.5654°
Mean anomaly
138.1228°
Rev number
73,121

§ Raw data

UNKNOWN1 87211U          26143.82747377  .00002155  00000+0  58795-3 0  99992 87211  99.0821 160.4493 0053175  38.5654 138.1228 14.47670371731218

JSON: /api/v1/satellites/87211 · /tle

For live sub-satellite position, see the globe view (requires WebGL).

§ Visibility from observer

Set your observer location to see the next 7 days of passes ≥ 10°. The values pass through the URL so the page stays shareable.

No JS? Fill the form by hand. The geolocation button needs JavaScript.